Air Resources Laboratory banner image
Air Resources Laboratory web site National Oceanic and Atmospheric Administration (NOAA)

il zone


NYZ176-178-MAZ106-OHZ011-021-055-MIZ076-KYZ091-ILZ014-INZ047-
MNZ060-ONZ431-121100-

...Gateway Observations for Savannah International...

CITY           SKY/WX    TMP DP  RH WIND       PRES   REMARKS
Savannah Arpt  CLEAR     43  39  86 SW7       29.94F
Atlanta        MOCLDY    44  37  76 W7        29.85F
Charlotte      PTCLDY    42  34  73 SW7       29.76F
Dallas DFW     PTCLDY    50  26  39 N15       30.30R
Houston Bush   MOCLDY    52  38  58 NW6       30.21R
Wash National  CLOUDY    42  32  67 S7        29.67F
Wash Dulles    CLOUDY    39  31  72 S9        29.64F WCI  33
Baltimore      CLOUDY    40  32  73 S6        29.65F WCI  36
Philadelphia   CLOUDY    43  34  70 S12       29.71F
Newark         LGT RAIN  44  35  70 S8        29.75F
Laguardia      CLOUDY    45  36  70 S10G16    29.76F
J F K          CLOUDY    46  37  71 S20G26    29.78F
Boston         CLOUDY    37  27  67 SE10      29.89F WCI  30
Pittsburg      CLOUDY    39  30  70 W13G21    29.56S WCI  31
Akron          LGT SNOW  31  27  85 W10       29.59S FOG     WCI  22
Cleveland      LGT SNOW  33  31  92 NW16      29.65R FOG     WCI  23
Cincinnati     DRIZZLE   35  31  85 NW18      29.82R WCI  24
Columbus       CLOUDY    33  30  88 NW14G25   29.74R WCI  23
Detroit        LGT SNOW  28  20  71 NW17G24   29.72R BLWGSNOWWCI  16
Chicago O'Hare PTCLDY    22  11  62 N20G25    30.01R WCI   7
Minneapolis    CLEAR      9   4  80 NW12G22   30.25F WCI  -6
Indianapolis   CLOUDY    30  27  88 NW20      29.91R WCI  17
Toronto Canada LGT SNOW  27  25  93 N5        29.53F WCI  21


NYZ176-178-MAZ106-OHZ011-021-055-MIZ076-KYZ091-ILZ014-INZ047-
MNZ060-ONZ431-121100-

...Gateway Observations for Savannah International...

CITY           SKY/WX    TMP DP  RH WIND       PRES   REMARKS
Savannah Arpt  CLEAR     43  39  86 SW7       29.94F
Atlanta        MOCLDY    44  37  76 W7        29.85F
Charlotte      PTCLDY    42  34  73 SW7       29.76F
Dallas DFW     PTCLDY    50  26  39 N15       30.30R
Houston Bush   MOCLDY    52  38  58 NW6       30.21R
Wash National  CLOUDY    42  32  67 S7        29.67F
Wash Dulles    CLOUDY    39  31  72 S9        29.64F WCI  33
Baltimore      CLOUDY    40  32  73 S6        29.65F WCI  36
Philadelphia   CLOUDY    43  34  70 S12       29.71F
Newark         LGT RAIN  44  35  70 S8        29.75F
Laguardia      CLOUDY    45  36  70 S10G16    29.76F
J F K          CLOUDY    46  37  71 S20G26    29.78F
Boston         CLOUDY    37  27  67 SE10      29.89F WCI  30
Pittsburg      CLOUDY    39  30  70 W13G21    29.56S WCI  31
Akron          LGT SNOW  31  27  85 W10       29.59S FOG     WCI  22
Cleveland      LGT SNOW  33  31  92 NW16      29.65R FOG     WCI  23
Cincinnati     DRIZZLE   35  31  85 NW18      29.82R WCI  24
Columbus       CLOUDY    33  31  92 NW13G21   29.74R FOG     WCI  24
Detroit        LGT SNOW  28  20  71 NW17G24   29.72R BLWGSNOWWCI  16
Chicago O'Hare PTCLDY    22  11  62 N20G25    30.01R WCI   7
Minneapolis    CLEAR      9   4  80 NW12G22   30.25F WCI  -6
Indianapolis   CLOUDY    30  25  81 NW17G23   29.91S WCI  18
Toronto Canada LGT SNOW  27  25  93 N5        29.53F WCI  21